Hourly Data Report for June 12, 2021

TORONTO CITY
ONTARIO
Current Station Operator: ECCC - MSC

43°40'00.000" N
79°24'00.000" W
112.50 m
6158355
71508
XTO

Download Data

Hourly Data (June 2021)
Hourly Data Report for June 12, 2021
TIME
LST
Temp Definition
°C
Dew Point Definition
°C
Rel Hum Definition
%
Precip. Amount Definition
mm

Wind Dir Definition
10's deg

Wind Spd Definition
km/h
Visibility Definition
km
Stn Press Definition
kPa
Hmdx Definition


Wind Chill Definition


Weather Definition


00:00 19.4 11.6 61 0.0       99.85     LegendNANA
01:00 18.8 11.1 61 0.0       99.79     LegendNANA
02:00 18.4 11.4 64 0.0       99.79     LegendNANA
03:00 18.0 11.1 64 0.0       99.80     LegendNANA
04:00 18.4 11.1 63 0.0       99.83     LegendNANA
05:00 18.4 11.3 63 0.0       99.81     LegendNANA
06:00 18.4 11.9 66 0.0       99.87     LegendNANA
07:00 19.4 12.5 64 0.0       99.86     LegendNANA
08:00 20.3 10.9 55 0.0       99.94     LegendNANA
09:00 21.1 11.0 52 0.0       99.96     LegendNANA
10:00 21.5 9.7 47 0.0       99.96     LegendNANA
11:00 22.2 9.6 45 0.0       99.88     LegendNANA
12:00 22.1 9.7 45 0.0       99.91     LegendNANA
13:00 23.3 9.1 41 0.0       99.90     LegendNANA
14:00 23.7 9.0 39 0.0       99.88 25   LegendNANA
15:00 23.9 8.2 37 0.0       99.85     LegendNANA
16:00 24.7 9.3 38 0.0       99.79 26   LegendNANA
17:00 23.6 8.1 37 0.0       99.75     LegendNANA
18:00 23.2 8.8 40 0.0       99.74     LegendNANA
19:00 23.0 7.9 38 0.0       99.74     LegendNANA
20:00 21.6 6.9 39 0.0       99.72     LegendNANA
21:00 20.6 7.6 43 0.0       99.78     LegendNANA
22:00 21.6 6.8 38 0.0       99.74     LegendNANA
23:00 22.1 6.9 37 0.0       99.76     LegendNANA

Notes on Data Quality.

Legend

  • E = Estimated
  • M = Missing
  • NA = Not Available*
  • [empty] = Indicates an unobserved value
Date modified: